F8983 Weather Reports


time (UTC)temp
C
wind
direction
speed
KPH
gust
KPH
rain 1hr
cm
rain 24hr
cm
rain mn
cm
humidity
%
barometer
mb
20260507043035 12 0 0.0 0.0 0.00 0.00 0.00 82 1020.7
20260507042512 12 0 0.0 0.0 0.00 0.00 0.00 82 1020.7
20260507042016 12 0 0.0 0.0 0.00 0.00 0.00 82 1020.8
20260507041531 12 0 0.0 0.0 0.00 0.00 0.00 82 1020.8
20260507041012 12 0 0.0 0.0 0.00 0.00 0.00 82 1020.7
20260507040511 12 0 0.0 0.0 0.00 0.00 0.00 81 1020.7
20260507040032 12 0 0.0 0.0 0.00 0.00 0.00 81 1020.8
20260507035511 12 0 0.0 0.0 0.00 0.00 0.00 81 1020.7
20260507035008 12 0 0.0 0.0 0.00 0.00 0.00 81 1020.6
20260507034532 12 0 0.0 0.0 0.00 0.00 0.00 81 1020.6
20260507034010 13 0 0.0 0.0 0.00 0.00 0.00 80 1020.5
20260507033515 13 0 0.0 0.0 0.00 0.00 0.00 81 1020.5
20260507033036 13 0 0.0 0.0 0.00 0.00 0.00 80 1020.5
20260507032512 13 0 0.0 1.6 0.00 0.00 0.00 80 1020.4
20260507032017 13 0 0.0 3.2 0.00 0.00 0.00 80 1020.4
20260507031531 13 0 0.0 3.2 0.00 0.00 0.00 80 1020.3
20260507031011 13 0 0.0 0.0 0.00 0.00 0.00 79 1020.3
20260507030513 13 0 0.0 0.0 0.00 0.00 0.00 79 1020.2
20260507030032 13 0 0.0 0.0 0.00 0.00 0.00 80 1020.2
20260507025510 13 0 0.0 0.0 0.00 0.00 0.00 80 1020.2
20260507025011 13 0 0.0 1.6 0.00 0.00 0.00 79 1020.2
20260507024534 13 0 0.0 1.6 0.00 0.00 0.00 79 1020.1
20260507024008 13 0 0.0 0.0 0.00 0.00 0.00 79 1020.1
20260507023519 13 0 0.0 0.0 0.00 0.00 0.00 79 1020.1
20260507023031 13 0 0.0 1.6 0.00 0.00 0.00 79 1020.1
20260507022512 13 0 0.0 1.6 0.00 0.00 0.00 79 1020.1
20260507022011 13 0 0.0 3.2 0.00 0.00 0.00 79 1020.0
20260507021529 13 0 0.0 3.2 0.00 0.00 0.00 78 1020.0
20260507021015 13 355 0.0 3.2 0.00 0.00 0.00 78 1020.0
20260507020513 13 0 0.0 3.2 0.00 0.00 0.00 78 1020.0
20260507020030 13 0 0.0 4.8 0.00 0.00 0.00 78 1020.1
20260507015510 13 0 1.6 4.8 0.00 0.00 0.00 78 1020.1
20260507015013 13 355 1.6 6.4 0.00 0.00 0.00 78 1020.1
20260507014530 13 355 1.6 6.4 0.00 0.00 0.00 78 1020.1
20260507014011 13 0 0.0 3.2 0.00 0.00 0.00 79 1020.1
20260507013511 13 0 0.0 3.2 0.00 0.00 0.00 79 1020.1
20260507013037 13 352 0.0 3.2 0.00 0.00 0.00 78 1020.1
20260507012516 13 352 0.0 3.2 0.00 0.00 0.00 78 1020.1
20260507012012 13 0 0.0 1.6 0.00 0.00 0.00 78 1020.1
20260507011538 13 0 0.0 3.2 0.00 0.00 0.00 78 1020.1
20260507011007 13 0 0.0 4.8 0.00 0.00 0.00 78 1020.1
20260507010512 13 0 0.0 4.8 0.00 0.00 0.00 78 1020.1
20260507010032 13 352 0.0 3.2 0.00 0.00 0.00 78 1020.2
20260507005512 13 0 0.0 1.6 0.00 0.00 0.00 78 1020.2
20260507005009 13 0 0.0 4.8 0.00 0.00 0.00 78 1020.2
20260507004532 13 0 0.0 4.8 0.00 0.00 0.00 78 1020.2
20260507004010 13 0 1.6 4.8 0.00 0.00 0.00 77 1020.3
20260507003515 13 352 0.0 4.8 0.00 0.00 0.00 78 1020.3
20260507003031 13 352 0.0 9.7 0.00 0.00 0.00 77 1020.3
20260507002509 13 0 1.6 9.7 0.00 0.00 0.00 77 1020.2
20260507002014 13 0 0.0 6.4 0.00 0.00 0.00 77 1020.2
20260507001533 13 0 0.0 4.8 0.00 0.00 0.00 77 1020.3
20260507001010 13 0 0.0 4.8 0.00 0.00 0.00 77 1020.2
20260507000511 13 83 1.6 4.8 0.00 0.00 0.00 76 1020.3
20260507000030 13 84 0.0 4.8 0.00 0.00 0.00 77 1020.3
20260506235513 13 84 0.0 4.8 0.00 0.00 0.00 77 1020.2
20260506235009 13 84 0.0 4.8 0.00 0.00 0.00 77 1020.2
20260506234541 13 84 1.6 4.8 0.00 0.00 0.00 78 1020.3
20260506234011 13 0 0.0 3.2 0.00 0.00 0.00 78 1020.2
20260506233509 13 86 1.6 3.2 0.00 0.00 0.00 78 1020.3
20260506233033 13 0 0.0 4.8 0.00 0.00 0.00 78 1020.2
20260506232510 13 86 0.0 4.8 0.00 0.00 0.00 78 1020.2
20260506232014 13 86 0.0 4.8 0.00 0.00 0.00 78 1020.4
20260506231535 13 0 0.0 4.8 0.00 0.00 0.00 79 1020.4
20260506231014 13 0 0.0 3.2 0.00 0.00 0.00 79 1020.4
20260506230510 13 0 0.0 6.4 0.00 0.00 0.00 79 1020.4
20260506230028 13 0 0.0 6.4 0.00 0.00 0.00 79 1020.5
20260506225510 13 95 0.0 6.4 0.00 0.00 0.00 79 1020.4
20260506225013 13 98 0.0 6.4 0.00 0.00 0.00 80 1020.3
20260506224531 13 0 0.0 1.6 0.00 0.00 0.00 80 1020.4
20260506224014 13 103 0.0 1.6 0.00 0.00 0.00 80 1020.4
20260506223512 13 0 0.0 3.2 0.00 0.00 0.00 80 1020.4
20260506223031 13 103 0.0 3.2 0.00 0.00 0.00 80 1020.4
20260506222511 13 0 0.0 3.2 0.00 0.00 0.00 80 1020.4
20260506222010 13 0 0.0 3.2 0.00 0.00 0.00 80 1020.4
20260506221531 13 103 0.0 4.8 0.00 0.00 0.00 80 1020.4
20260506221010 13 0 0.0 4.8 0.00 0.00 0.00 80 1020.4
20260506220509 13 0 0.0 4.8 0.00 0.00 0.00 80 1020.4
20260506220032 13 0 0.0 3.2 0.00 0.00 0.00 80 1020.4
20260506215509 13 0 0.0 3.2 0.00 0.00 0.00 80 1020.4
20260506215011 13 0 0.0 4.8 0.00 0.00 0.00 80 1020.4
20260506214531 12 0 0.0 4.8 0.00 0.00 0.00 80 1020.5
20260506214012 13 0 0.0 3.2 0.00 0.00 0.00 81 1020.5
20260506213508 12 0 0.0 4.8 0.00 0.00 0.00 81 1020.4
20260506213030 12 103 1.6 4.8 0.00 0.00 0.00 81 1020.4
20260506212513 12 103 0.0 3.2 0.00 0.00 0.00 81 1020.5
20260506212012 12 0 0.0 3.2 0.00 0.00 0.00 81 1020.4
20260506211528 12 103 0.0 3.2 0.00 0.00 0.00 82 1020.5
20260506211011 12 0 0.0 4.8 0.00 0.00 0.00 82 1020.4
20260506210512 12 0 1.6 4.8 0.00 0.00 0.00 82 1020.4
20260506210031 12 0 0.0 6.4 0.00 0.00 0.00 82 1020.4
20260506205511 12 103 0.0 6.4 0.00 0.00 0.00 82 1020.3
20260506205012 12 103 1.6 6.4 0.00 0.00 0.00 82 1020.3
20260506204534 12 0 0.0 4.8 0.00 0.00 0.00 82 1020.4
20260506204016 12 108 0.0 4.8 0.00 0.00 0.00 82 1020.3
20260506203511 12 108 1.6 4.8 0.00 0.00 0.00 83 1020.3
20260506203043 12 0 0.0 3.2 0.00 0.00 0.00 83 1020.3
20260506202512 12 0 0.0 3.2 0.00 0.00 0.00 84 1020.3
20260506202016 12 0 0.0 3.2 0.00 0.00 0.00 84 1020.3
20260506201529 12 108 0.0 3.2 0.00 0.00 0.00 84 1020.3
20260506201009 12 0 0.0 3.2 0.00 0.00 0.00 84 1020.3
20260506200513 12 0 0.0 3.2 0.00 0.00 0.00 84 1020.2
20260506200041 12 0 0.0 3.2 0.00 0.00 0.00 84 1020.2
20260506195510 12 0 0.0 3.2 0.00 0.00 0.00 84 1020.1
20260506195011 12 0 0.0 4.8 0.00 0.00 0.00 84 1020.1
20260506194531 12 0 0.0 4.8 0.00 0.00 0.00 84 1020.2
20260506194009 12 108 1.6 4.8 0.00 0.00 0.00 84 1020.1
20260506193513 12 0 0.0 1.6 0.00 0.00 0.00 84 1020.1
20260506193031 12 0 0.0 1.6 0.00 0.00 0.00 84 1020.0
20260506192509 12 0 0.0 1.6 0.00 0.00 0.00 84 1020.1
20260506192011 12 0 0.0 3.2 0.00 0.00 0.00 85 1020.0
20260506191532 12 0 0.0 3.2 0.00 0.00 0.00 85 1019.9
20260506191009 12 108 0.0 4.8 0.00 0.00 0.00 85 1020.0
20260506190509 12 108 0.0 4.8 0.00 0.00 0.00 85 1019.9
20260506190039 12 0 0.0 3.2 0.00 0.00 0.00 85 1020.0
20260506185511 12 0 0.0 3.2 0.00 0.00 0.00 85 1020.1
20260506185011 12 109 1.6 4.8 0.00 0.00 0.00 86 1020.1
20260506184531 12 109 0.0 4.8 0.00 0.00 0.00 86 1020.0
20260506184011 12 0 0.0 4.8 0.00 0.00 0.00 86 1020.0
20260506183510 12 0 1.6 4.8 0.00 0.00 0.00 86 1020.0
20260506183028 12 109 0.0 1.6 0.00 0.00 0.00 86 1020.0
20260506182508 12 0 0.0 3.2 0.00 0.00 0.00 86 1020.1
20260506182017 12 0 0.0 3.2 0.00 0.00 0.00 86 1020.0
20260506181528 12 109 1.6 3.2 0.00 0.00 0.00 86 1019.9
20260506181009 12 109 0.0 3.2 0.00 0.00 0.00 86 1019.8
20260506180512 12 0 0.0 3.2 0.00 0.00 0.00 86 1019.7
20260506180033 12 109 0.0 3.2 0.00 0.00 0.00 86 1019.8
20260506175508 12 109 0.0 3.2 0.00 0.00 0.00 86 1019.8
20260506175010 12 0 0.0 6.4 0.00 0.00 0.00 86 1019.7
20260506174531 12 0 0.0 6.4 0.00 0.00 0.00 86 1019.7
20260506174013 12 0 0.0 6.4 0.00 0.00 0.00 86 1019.8
20260506173514 12 0 0.0 6.4 0.00 0.00 0.00 86 1020.0
20260506173039 12 111 1.6 6.4 0.00 0.00 0.00 85 1019.8
20260506172511 12 0 0.0 3.2 0.00 0.00 0.00 85 1020.0
20260506172014 12 0 0.0 3.2 0.00 0.00 0.00 85 1020.0
20260506171532 12 0 0.0 3.2 0.00 0.00 0.00 85 1020.0
20260506171010 12 113 0.0 3.2 0.00 0.00 0.00 85 1019.9
20260506170516 12 113 0.0 4.8 0.00 0.00 0.00 84 1019.9
20260506170032 12 0 1.6 6.4 0.00 0.00 0.00 84 1019.8
20260506165510 12 0 1.6 6.4 0.00 0.00 0.00 84 1019.7
20260506165008 12 112 1.6 6.4 0.00 0.00 0.00 83 1019.7
20260506164532 12 0 0.0 6.4 0.00 0.00 0.00 84 1019.6
20260506164009 12 112 0.0 6.4 0.00 0.00 0.00 84 1019.5
20260506163512 12 113 1.6 6.4 0.00 0.00 0.00 84 1019.4
20260506163050 12 123 0.0 4.8 0.00 0.00 0.00 84 1019.4
20260506162511 12 123 1.6 6.4 0.00 0.00 0.00 85 1019.4
20260506162014 12 0 0.0 8.0 0.00 0.00 0.00 85 1019.3
20260506161531 12 123 1.6 8.0 0.00 0.00 0.00 85 1019.2
20260506161009 12 179 0.0 3.2 0.00 0.00 0.00 85 1019.3
20260506160514 12 179 1.6 6.4 0.00 0.00 0.00 85 1019.4
20260506160032 12 179 1.6 6.4 0.00 0.00 0.00 85 1019.3
20260506155512 12 232 0.0 4.8 0.00 0.00 0.00 86 1019.4
20260506155015 12 234 0.0 6.4 0.00 0.00 0.00 86 1019.4
20260506154536 12 0 1.6 6.4 0.00 0.00 0.00 86 1019.6
20260506154010 12 0 0.0 4.8 0.00 0.00 0.00 86 1019.5
20260506153514 12 0 0.0 6.4 0.00 0.00 0.00 86 1019.5
20260506153031 12 248 1.6 6.4 0.00 0.00 0.00 86 1019.5
20260506152515 12 248 1.6 6.4 0.00 0.00 0.00 86 1019.5
20260506152016 12 0 0.0 6.4 0.00 0.00 0.00 86 1019.4
20260506151539 12 248 0.0 6.4 0.00 0.00 0.00 86 1019.3
20260506151010 12 0 0.0 4.8 0.00 0.00 0.00 86 1019.3
20260506150513 12 244 1.6 6.4 0.00 0.00 0.00 86 1019.2
20260506150030 12 0 0.0 6.4 0.00 0.00 0.00 86 1019.3
20260506145510 12 243 1.6 6.4 0.00 0.00 0.00 86 1019.3
20260506145013 12 246 0.0 4.8 0.00 0.00 0.00 86 1019.3
20260506144531 12 0 0.0 4.8 0.00 0.00 0.00 86 1019.4
20260506144012 12 246 0.0 4.8 0.00 0.00 0.00 86 1019.4
20260506143516 12 0 0.0 3.2 0.00 0.00 0.00 86 1019.3
20260506143032 12 0 0.0 3.2 0.00 0.00 0.00 85 1019.3
20260506142508 12 0 0.0 3.2 0.00 0.00 0.00 85 1019.2
20260506142010 12 0 0.0 1.6 0.00 0.00 0.00 85 1019.1
20260506141529 12 0 0.0 1.6 0.00 0.00 0.00 85 1019.1
20260506141016 12 0 0.0 0.0 0.00 0.00 0.00 85 1019.0
20260506140512 12 0 0.0 0.0 0.00 0.00 0.00 85 1019.1
20260506140033 12 0 0.0 1.6 0.00 0.00 0.00 85 1019.1
20260506135514 12 0 0.0 1.6 0.00 0.00 0.00 85 1019.2
20260506135014 12 0 0.0 3.2 0.00 0.00 0.00 85 1019.1
20260506134528 12 0 0.0 3.2 0.00 0.00 0.00 85 1019.0
20260506134016 12 0 0.0 0.0 0.00 0.00 0.00 85 1019.1
20260506133515 12 0 0.0 3.2 0.00 0.00 0.00 85 1019.0
20260506133033 12 0 0.0 3.2 0.00 0.00 0.00 85 1019.0
20260506132515 12 0 0.0 3.2 0.00 0.00 0.00 85 1018.8
20260506132015 12 0 0.0 3.2 0.00 0.00 0.00 85 1018.9
20260506131535 12 0 0.0 3.2 0.00 0.00 0.00 85 1018.6
20260506131013 12 0 0.0 3.2 0.00 0.00 0.00 85 1018.4
20260506130517 12 0 0.0 3.2 0.00 0.00 0.00 85 1018.6
20260506130031 12 0 0.0 3.2 0.00 0.00 0.00 85 1018.6
20260506125511 12 0 0.0 3.2 0.00 0.00 0.00 85 1018.6
20260506125011 12 0 0.0 3.2 0.00 0.00 0.00 85 1018.5
20260506124529 12 0 0.0 3.2 0.00 0.00 0.00 85 1018.5
20260506124011 12 246 0.0 1.6 0.00 0.00 0.00 85 1018.4
20260506123513 12 0 0.0 4.8 0.00 0.00 0.00 86 1018.3
20260506123028 12 0 0.0 4.8 0.00 0.00 0.00 86 1018.3
20260506122509 12 246 0.0 4.8 0.00 0.00 0.00 86 1018.3
20260506122009 12 0 0.0 1.6 0.00 0.00 0.00 86 1018.3
20260506121528 12 0 0.0 1.6 0.00 0.00 0.00 86 1018.4
20260506121010 12 0 0.0 4.8 0.00 0.00 0.00 86 1018.5
20260506120513 12 0 0.0 4.8 0.00 0.00 0.00 86 1018.4
20260506120032 12 0 0.0 0.0 0.00 0.00 0.00 86 1018.3
20260506115511 12 0 0.0 0.0 0.00 0.00 0.00 87 1018.2
20260506115014 12 0 0.0 0.0 0.00 0.00 0.00 87 1018.1
20260506114529 12 0 0.0 0.0 0.00 0.00 0.00 87 1018.0
20260506114008 12 0 0.0 0.0 0.00 0.00 0.00 87 1018.0
20260506113514 12 0 0.0 0.0 0.00 0.00 0.00 87 1018.0
20260506113032 12 0 0.0 0.0 0.00 0.00 0.00 87 1018.1
20260506112514 12 0 0.0 0.0 0.00 0.00 0.00 87 1018.1
20260506112018 12 0 0.0 0.0 0.00 0.00 0.00 87 1018.0
20260506111531 12 0 0.0 0.0 0.00 0.00 0.00 87 1017.9
20260506111012 12 0 0.0 0.0 0.00 0.00 0.00 87 1017.9
20260506110509 12 0 0.0 0.0 0.00 0.00 0.00 87 1017.9
20260506110030 12 0 0.0 1.6 0.00 0.00 0.00 88 1017.9
20260506105511 12 0 0.0 3.2 0.00 0.00 0.00 88 1017.8
20260506105013 12 0 0.0 3.2 0.00 0.00 0.00 88 1017.8
20260506104528 12 0 0.0 3.2 0.00 0.00 0.00 88 1017.8
20260506104016 11 245 0.0 3.2 0.00 0.00 0.00 89 1017.7
20260506103511 11 0 0.0 1.6 0.00 0.00 0.00 89 1017.6
20260506103030 11 0 0.0 1.6 0.00 0.00 0.00 89 1017.6
20260506102511 11 0 0.0 0.0 0.00 0.00 0.00 89 1017.6
20260506102010 11 0 0.0 1.6 0.00 0.00 0.00 89 1017.7
20260506101530 11 0 0.0 1.6 0.00 0.00 0.00 89 1017.6
20260506101008 11 0 0.0 0.0 0.00 0.00 0.00 89 1017.6
20260506100510 11 0 0.0 0.0 0.00 0.00 0.00 89 1017.5
20260506100031 11 0 0.0 0.0 0.00 0.00 0.00 89 1017.4
20260506095510 11 0 0.0 0.0 0.00 0.00 0.00 89 1017.4
20260506095015 11 0 0.0 0.0 0.00 0.00 0.00 89 1017.4
20260506094529 11 0 0.0 0.0 0.00 0.00 0.00 89 1017.4
20260506094011 11 0 0.0 0.0 0.00 0.00 0.00 89 1017.3
20260506093512 11 0 0.0 0.0 0.00 0.00 0.00 89 1017.4
20260506093028 11 0 0.0 0.0 0.00 0.00 0.00 89 1017.3
20260506092509 11 0 0.0 0.0 0.00 0.00 0.00 89 1017.3
20260506092015 11 0 0.0 0.0 0.00 0.00 0.00 89 1017.3
20260506091530 11 0 0.0 0.0 0.00 0.00 0.00 89 1017.1
20260506091013 11 0 0.0 0.0 0.00 0.00 0.00 89 1017.1
20260506090509 11 0 0.0 0.0 0.00 0.00 0.00 88 1017.1
20260506090032 11 0 0.0 0.0 0.00 0.00 0.00 88 1017.1
20260506085510 11 0 0.0 0.0 0.00 0.00 0.00 88 1017.0
20260506085009 11 0 0.0 0.0 0.00 0.00 0.00 88 1017.0
20260506084537 11 0 0.0 0.0 0.00 0.00 0.00 88 1016.8
20260506084013 11 0 0.0 0.0 0.00 0.00 0.00 88 1016.8
20260506083516 11 0 0.0 0.0 0.00 0.00 0.00 88 1016.8
20260506083032 11 0 0.0 0.0 0.00 0.00 0.00 88 1016.7
20260506082510 11 0 0.0 0.0 0.00 0.00 0.00 88 1016.8
20260506082015 11 0 0.0 0.0 0.00 0.00 0.00 88 1016.8
20260506081535 11 0 0.0 0.0 0.00 0.00 0.00 88 1016.8
20260506081012 11 0 0.0 0.0 0.00 0.00 0.00 88 1016.8
20260506080511 11 0 0.0 0.0 0.00 0.00 0.00 87 1016.8
20260506073516 11 0 0.0 0.0 0.00 0.00 0.00 87 1016.7
20260506073030 11 0 0.0 0.0 0.00 0.00 0.00 87 1016.7
20260506072513 11 0 0.0 0.0 0.00 0.00 0.00 87 1016.7
20260506072011 11 0 0.0 0.0 0.00 0.00 0.00 87 1016.7
20260506071532 11 0 0.0 0.0 0.00 0.00 0.00 87 1016.7
20260506071011 11 0 0.0 0.0 0.00 0.00 0.00 87 1016.6
20260506070510 11 0 0.0 0.0 0.00 0.00 0.00 87 1016.5
20260506062516 12 0 0.0 0.0 0.00 0.00 0.00 86 1016.3
20260506062014 12 0 0.0 0.0 0.00 0.00 0.00 86 1016.1
20260506061534 12 0 0.0 0.0 0.00 0.00 0.00 86 1016.2
20260506061010 12 0 0.0 0.0 0.00 0.00 0.00 86 1016.1
20260506060513 12 0 0.0 0.0 0.00 0.00 0.00 86 1016.1
20260506051011 12 0 0.0 0.0 0.00 0.00 0.00 84 1015.7
20260506050511 12 0 0.0 0.0 0.00 0.00 0.00 84 1015.6
20260506045010 13 0 0.0 0.0 0.00 0.00 0.00 84 1015.6
20260506044532 13 0 0.0 0.0 0.00 0.00 0.00 83 1015.5
20260506044008 13 0 0.0 0.0 0.00 0.00 0.00 83 1015.5
20260506043511 13 0 0.0 0.0 0.00 0.00 0.00 83 1015.4